EDT,Max TemperatureF,Mean TemperatureF,Min TemperatureF,Max Dew PointF,MeanDew PointF,Min DewpointF,Max Humidity, Mean Humidity, Min Humidity, Max Sea Level PressureIn, Mean Sea Level PressureIn, Min Sea Level PressureIn, Max VisibilityMiles, Mean VisibilityMiles, Min VisibilityMiles, Max Wind SpeedMPH, Mean Wind SpeedMPH, Max Gust SpeedMPH,PrecipitationIn, CloudCover, Events, WindDirDegrees
2013-8-1,81,70,59,68,64,57,97,77,56,30.04,29.94,29.85,10,7,2,18,6,23,0.52,6,Rain,174
2013-8-2,84,74,64,65,62,56,100,70,40,29.88,29.83,29.79,10,5,0,18,6,24,0.38,5,Fog-Rain-Thunderstorm,281
2013-8-3,81,72,63,63,61,58,93,69,45,29.88,29.84,29.78,10,10,2,17,6,23,0.22,5,Rain,222
2013-8-4,80,68,56,61,55,51,93,67,40,29.94,29.86,29.82,10,10,8,32,5,40,0.13,3,Rain-Thunderstorm,312
2013-8-5,77,65,53,53,48,42,93,62,31,30.05,29.99,29.93,10,10,10,18,6,24,0.00,1,,322
2013-8-6,81,66,51,60,53,49,93,66,39,30.14,30.11,30.05,10,10,10,14,5,21,0.00,2,,187
2013-8-7,80,68,56,63,58,52,93,66,39,30.17,30.13,30.09,10,10,10,17,7,23,T,6,,167
2013-8-8,85,77,69,70,68,63,93,77,61,30.08,30.04,30.00,10,10,5,16,10,22,0.02,7,Rain,178
2013-8-9,80,76,72,74,72,69,100,93,85,30.01,29.85,29.76,10,6,0,21,9,28,3.79,8,Rain-Thunderstorm,184
2013-8-10,84,73,61,70,58,47,93,67,40,30.04,29.93,29.83,10,10,10,17,8,23,0.00,3,,309
2013-8-11,81,67,53,60,53,46,89,63,36,30.11,30.05,30.01,10,10,10,14,4,22,0.00,2,,280
2013-8-12,83,72,61,61,59,56,93,68,43,30.03,29.98,29.92,10,10,10,12,4,14,0.00,4,,194
2013-8-13,76,71,65,70,66,62,100,82,64,29.92,29.79,29.68,10,6,0,18,7,23,0.25,7,Rain,186
2013-8-14,75,65,55,63,52,50,87,67,46,29.99,29.82,29.72,10,10,10,23,10,30,0.00,3,,306
2013-8-15,78,66,54,55,51,47,86,60,33,30.13,30.07,30.01,10,10,10,12,6,,0.00,2,,286
2013-8-16,79,66,52,58,54,51,93,66,39,30.19,30.15,30.12,10,10,10,10,1,13,0.00,4,,254
2013-8-17,83,69,55,61,55,48,93,63,33,30.28,30.25,30.21,10,10,9,15,2,44,0.00,4,,348
2013-8-18,78,69,59,62,60,57,97,78,58,30.27,30.21,30.10,10,10,9,9,3,10,T,7,Rain,225
2013-8-19,80,70,60,63,59,57,90,68,45,30.09,30.04,29.99,10,10,10,12,5,,0.00,6,,232
2013-8-20,87,73,59,64,61,57,93,65,37,30.11,30.07,30.01,10,10,10,14,4,17,0.00,1,,296
2013-8-21,88,74,60,64,62,59,100,70,40,30.17,30.10,30.03,10,10,7,13,4,16,0.00,1,,243
2013-8-22,83,73,63,70,67,62,93,76,58,30.04,29.94,29.85,10,9,5,17,6,21,0.08,5,Rain-Thunderstorm,200
2013-8-23,82,72,61,66,59,51,90,63,36,30.13,29.96,29.85,10,10,9,18,7,22,0.00,5,,346
2013-8-24,78,66,53,57,51,48,84,61,37,30.34,30.27,30.15,10,10,10,12,5,38,0.00,1,,342
2013-8-25,83,67,51,56,52,48,96,65,33,30.38,30.30,30.20,10,10,10,13,4,17,0.00,2,,211
2013-8-26,77,72,66,68,62,55,97,81,64,30.19,30.02,29.90,10,8,2,12,7,,0.90,8,Rain,188
2013-8-27,86,78,69,70,68,66,97,76,55,29.89,29.85,29.82,10,7,1,12,5,17,0.36,6,Rain,345
2013-8-28,87,76,65,70,67,64,100,76,51,29.91,29.88,29.82,10,8,0,17,4,22,0.00,4,,101
2013-8-29,77,72,66,68,64,60,93,79,64,30.06,30.00,29.92,10,10,6,18,7,22,0.01,7,Rain,35
2013-8-30,85,75,64,68,64,60,93,72,51,30.02,29.93,29.84,10,10,8,12,7,15,0.00,7,,197
2013-8-31,79,75,71,73,71,68,93,84,74,29.83,29.81,29.78,10,8,4,13,8,15,0.22,7,Rain-Thunderstorm,184